Regional Weather Roundup
Issued by NWS Pendleton, OR

Home | Current Version | Previous Version | Text Only | Print | Product List | Glossary On
Versions: 1 2 3 4 5 6 7 8 9 10 11 12 13 14 15 16 17 18 19 20 21 22 23 24 25 26 27 28 29 30 31 32 33 34 35 36 37 38 39 40 41 42 43 44 45 46 47 48 49 50
081
ASUS46 KPDT 261725
RWRPDT
PENDLETON REGIONAL WEATHER ROUNDUP
NATIONAL WEATHER SERVICE PENDLETON OREGON
1000 AM PDT FRI AUG 26 2016

NOTE: FAIR INDICATES FEW OR NO CLOUDS BELOW 12,000 FEET WITH NO
SIGNIFICANT WEATHER AND/OR OBSTRUCTIONS TO VISIBILITY.

# INDICATES UNOFFICIAL STATION AND DATA

WAZ520-261810-
EAST SLOPES OF WASHINGTON CASCADES

CITY            SKY/WX      TMP DP  RH  WIND    PRES   REMARKS
#CLE ELUM HS    N/A         73  50  44  CALM    29.96F
#CLE ELUM 2NW   N/A         74  47  38  SE1     N/A
#GLENWOOD       N/A         66  51  58  S1      29.94F
#MANASTASH CYN  N/A         73  47  40  W2      29.99F
#NELSON 3SW     N/A         71  51  49  CALM    30.08F
#NILE           N/A         70  48  46  W5      29.21F
#RONALD 2NW     N/A         70  N/A N/A SW1     29.91F
#TEANAWAY 4NE   N/A         72  52  49  NW3     N/A
#TROUT LAKE 1NE N/A         71  50  47  CALM    29.91F
#TROUT LAKE 1E  N/A         72  52  49  CALM    29.96F
$$

WAZ521-261810-
SIMCOE HIGHLANDS

CITY            SKY/WX      TMP DP  RH  WIND    PRES   REMARKS
#CENTERVILLE 1SWN/A         73  42  33  CALM    29.88F
#GOLDENDALE 1NE N/A         72  27  19  S1      N/A
#GOLDENDALE 4W  N/A         80  48  33  W2      30.01F
#GOODNOE HILLS  N/A         78  40  26  W5      29.88S
#LYLE 6NE       N/A         71  44  38  CALM    29.87F
$$

WAZ026-261810-
KITTITAS VALLEY

CITY            SKY/WX      TMP DP  RH  WIND    PRES   REMARKS
ELLENSBURG AP   SUNNY       71  50  47  SE6     30.00S
#ELLENSBURG CWU N/A         70  49  47  CALM    29.87F
#ELLENSBURG 3NE N/A         68  54  61  CALM    30.00F
#ELLENSBURG     N/A         75  52  45  E1      N/A
#ELLENSBURG 1E  N/A         67  N/A N/A SE1     N/A
#KITTITAS 4N    N/A         74  52  46  CALM    29.94F
#KITTITAS 3S    N/A         69  51  53  CALM    29.91F
#THORP 6N       N/A         73  46  38  N6      29.91F
$$

WAZ027-261810-
YAKIMA VALLEY

CITY            SKY/WX      TMP DP  RH  WIND    PRES   REMARKS
SUNNYSIDE AP    N/A         70  48  46  CALM    29.96F
YAKIMA AIRPORT  SUNNY       79  48  34  CALM    29.97F
YAKIMA-VAGABOND N/A         74  45  35  W6      29.95F
#DONALD 2NE     N/A         83  24  11  SE2     28.80F
#GRANDVIEW      N/A         74  46  37  NW2     29.94F
#MABTON         N/A         74  51  44  CALM    29.95F
#NACHES 2SW     N/A         75  53  46  W3      30.01S
#TERRACE HTS    N/A         76  52  43  CALM    29.87F
#TOPPENISH      N/A         76  49  39  CALM    29.84F
#WEST VALLEY    N/A         76  51  42  CALM    29.89F
#WHITE SWAN 5E  N/A         79  50  36  CALM    29.92F
#WILEY CITY 3W  N/A         79  42  27  CALM    29.94F
$$

WAZ028-261810-
LOWER COLUMBIA BASIN...WASHINGTON

CITY            SKY/WX      TMP DP  RH  WIND    PRES   REMARKS
HANFORD         MOSUNNY     78  42  28  N3      29.94F
PASCO           SUNNY       73  46  38  CALM    29.96S
PROSSER AWOS    N/A         75  48  38  W6      29.98F
RICHLAND AWOS   SUNNY       76  49  39  E3      29.94F
#BENTON CITY    N/A         76  46  34  SE1     29.83F
#CONNELL 5N     N/A         75  44  33  SW2     29.91S
#ELTOPIA 6NW    N/A         74  51  44  CALM    28.93S
#KAHLOTUS       N/A         73  40  30  S5      29.90S
#KENNEWICK 3S   N/A         72  53  51  CALM    29.93S
#PATERSON       N/A         70  45  41  CALM    29.92F
#SAGEMOOR 2W    N/A         72  53  51  CALM    29.78S
#TOUCHET 2S     N/A         72  48  43  CALM    29.91F
#WEST PASCO     N/A         75  54  48  CALM    29.93F
$$

WAZ029-261810-
FOOTHILLS OF THE BLUES...WASHINGTON

CITY            SKY/WX      TMP DP  RH  WIND    PRES   REMARKS
WALLA WALLA AP  SUNNY       75  36  24  SW6     29.97S
#CLYDE 6NW      N/A         76  38  25  W6      29.89F
#DAYTON SCHOOL  N/A         75  35  23  CALM    29.97F
#LOWDEN 2SE     N/A         77  46  33  CALM    29.91F
#PLEASANT VIEW 1N/A         80  38  22  S2      29.92F
#PRESCOTT       N/A         78  44  30  CALM    29.91F
#WHITMAN COLLEGEN/A         76  42  30  CALM    29.96F
#WAITSBURG 8N   N/A         80  22  12  S7      29.94S
#WHITMAN MISSIONN/A         73  49  43  CALM    29.93F
$$

WAZ030-261810-
BLUE MOUNTAINS...WASHINGTON

CITY            SKY/WX      TMP DP  RH  WIND    PRES   REMARKS
#DIXIE 5SE      N/A         73  37  27  W3      29.97R
$$

ORZ009-041-WAZ024-261810-
COLUMBIA RIVER GORGE

CITY            SKY/WX      TMP DP  RH  WIND    PRES   REMARKS
HOOD RIVER AP   SUNNY       72  48  43  S3      29.96F
THE DALLES AP   SUNNY       73  44  35  NW3     29.95F
#ARLINGTON AIRPON/A         74  44  34  W3      29.93S
#LYLE           N/A         72  48  43  W1      29.93F
#MARYHILL 2W    N/A         N/A N/A N/A CALM    N/A
#MOSIER 1S      N/A         72  34  25  CALM    29.94F
#MURDOCK        N/A         72  47  41  SW2     29.89F
#RUFUS DOT      N/A         70  45  41  NW6     N/A
#SMITHVILLE     N/A         71  46  41  N3      29.98F

$$

ORZ510-261810-
NORTH CENTRAL OREGON

CITY            SKY/WX      TMP DP  RH  WIND    PRES   REMARKS
#ANTELOPE       N/A         70  39  32  W3      29.79F
#COW CYN RST AREN/A         70  N/A N/A SW6     N/A
#DUFUR 9E       N/A         76  40  27  N5      29.93F
#GRASS VALLEY 1SN/A         76  38  25  NW1     29.97S
#KENT DOT       N/A         77  42  29  N3      N/A
#MAUPIN SCHOOL  N/A         73  42  33  CALM    30.01F
#SHANIKO 5WSW   N/A         72  38  29  N1      N/A
#TYGH VALLEY 2NEN/A         69  45  42  CALM    29.93F
#WAPANITIA AIRPON/A         75  41  29  CALM    29.93F
#WASCO DOT      N/A         77  49  37  NW3     N/A
#WASCO 5NE      N/A         78  43  29  CALM    29.91S
$$

ORZ511-261810-
CENTRAL OREGON

CITY            SKY/WX      TMP DP  RH  WIND    PRES   REMARKS
BEND AIRPORT    N/A         N/A N/A N/A MISG    N/A
MADRAS AIRPORT  SUNNY       75  37  25  MISG    30.06F
PRINEVILLE AP   SUNNY       72  34  25  CALM    30.06F
REDMOND AIRPORT SUNNY       70  27  20  CALM    30.06F
#ASHWOOD SCHOOL N/A         70  35  28  CALM    30.00F
#BEND 1SW       N/A         69  36  30  NE1     N/A
#BEND-AWBREY    N/A         69  37  31  NW2     29.92S
#CULVER         N/A         69  38  32  CALM    29.88S
#CULVER 8W      N/A         75  32  21  CALM    30.04S
#LAKE BILLY CHINN/A         71  N/A N/A NW1     30.08F
#MADRAS 4S      N/A         69  13  11  CALM    30.11S
#POWELL BUTTE 3EN/A         65  35  33  NE3     N/A
#POWELL BUTTE   N/A         73  42  33  W1      29.94S
#PRINEVILLE 3N  N/A         64  45  50  CALM    30.02F
#WARM SPRINGS   N/A         72  41  33  CALM    30.00F

$$


ORZ509-261810-
EAST SLOPES OF OREGON CASCADES

CITY            SKY/WX      TMP DP  RH  WIND    PRES   REMARKS
SISTERS AWOS    N/A         73  34  24  CALM    30.03F
#BLUE BOX PASS  N/A         66  N/A N/A SE2     N/A
#CAMP SHERMAN   N/A         70  36  29  CALM    30.01F
#LA PINE 4NW    N/A         64  39  40  CALM    29.99F
#LAVA BUTTE DOT N/A         67  42  40  CALM    N/A
#SISTERS AIRPOR N/A         74  45  35  N1      30.17S
#SISTERS ODOT   N/A         71  N/A N/A NW1     N/A
#SISTERS 3N     N/A         72  41  33  CALM    29.99S
#SUNRIVER       N/A         68  38  33  N1      29.95F
#TUMALO 3W      N/A         72  35  26  E1      29.79S
#WANOGA BUTTE D N/A         60  26  27  E8      N/A

$$

ORZ044-261810-
LOWER COLUMBIA BASIN...OREGON

CITY            SKY/WX      TMP DP  RH  WIND    PRES   REMARKS
HERMISTON       SUNNY       74  39  28  NW3     29.96S
#BOARDMAN SCHOOLN/A         68  50  53  CALM    29.95F
#ECHO 8SW       N/A         76  42  30  S2      29.97S
#I-84 EX 198 DOTN/A         76  49  39  E2      N/A
#UMATILLA       N/A         74  45  35  CALM    29.87F
$$

ORZ507-261810-
NORTHERN FOOTHILLS OF THE BLUES

CITY            SKY/WX      TMP DP  RH  WIND    PRES   REMARKS
PENDLETON AIRPT SUNNY       75  35  23  S5      29.98S
#ADAMS 3WNW     N/A         77  38  24  SW1     29.93F
#ATHENA         N/A         74  40  29  W2      29.95F
#CAYUSE         N/A         75  41  29  SW3     29.91F
#HELIX SCHOOL   N/A         74  40  29  CALM    29.92F
#HELIX 3N       N/A         77  36  23  SW3     29.96F
#HOLDMAN 5SE    N/A         77  39  25  SW1     29.96F
#HOLDMAN 6E     N/A         76  39  26  NE2     29.73S
#M-F GROVE ELEM N/A         78  39  25  CALM    29.94F
#M-FREEWATER 5SEN/A         76  46  34  N1      29.96F
#PDT AQUATIC CTRN/A         71  43  36  CALM    30.02S
#PDT SUNRIDGE   N/A         76  41  28  CALM    29.98S
#PENDLETON 7NW  N/A         80  49  34  CALM    31.89S
#PILOT ROCK 1S  N/A         78  40  26  W2      29.99S
#PILOT ROCK     N/A         74  42  32  NW2     29.98S
#TUTUILLA       N/A         78  38  24  CALM    29.96S
#UMAPINE 2E     N/A         75  55  50  CALM    29.93S
#WESTON SCHOOL  N/A         74  34  23  VRB2    29.87S

$$

ORZ508-261810-
SOUTHERN FOOTHILLS OF THE BLUES

CITY            SKY/WX      TMP DP  RH  WIND    PRES   REMARKS
LEXINGTON       SUNNY       79  36  21  N3      30.02S
#AJAX           N/A         74  32  21  CALM    27.76S
#CONDON SCHOOL  N/A         75  39  27  E1      29.99F
#CONDON 5W      N/A         73  32  22  N6      30.01F
#FOSSIL SCHOOL  N/A         76  38  25  CALM    29.97F
#HEPPNER EOC    N/A         78  37  23  CALM    29.85S
#HEPPNER 4NE    N/A         75  39  27  E1      29.91S
#LEXINGTON 2SE  N/A         81  40  23  CALM    29.94S
#MIKKALO        N/A         81  37  21  N1      30.10R
#OLEX 4N        N/A         77  40  26  CALM    29.96S
#RUGGS 5NE      N/A         78  37  23  NE5     30.17F
#RUGGS 2SW      N/A         75  36  24  NE2     29.93S

$$

ORZ502-503-261810-
BLUE MOUNTAINS

CITY            SKY/WX      TMP DP  RH  WIND    PRES   REMARKS
MEACHAM         SUNNY       74  25  16  VRB5    30.06F
#BATTLE MTN DOT N/A         64  42  45  CALM    N/A
#CUTSFORTH PARK N/A         69  37  31  CALM    29.86S
#HARDMAN 10S    N/A         71  35  27  N1      30.03S
#HEPPNER 15SE   N/A         69  35  28  W2      30.01R
#LADD CYN SMT   N/A         70  42  36  NW9     N/A
#LADD CREEK ODOTN/A         62  42  48  NE8     N/A
#LONG CREEK HS  N/A         67  38  34  N2      30.06F
#N POWDER DOT   N/A         70  46  42  CALM    N/A
#PIKES PEAK     N/A         68  35  29  CALM    27.99S
#TOLLGATE       N/A         66  34  30  E3      29.97S
#TROY SCHOOL    N/A         73  43  34  CALM    29.78F
#UKIAH          N/A         59  37  44  CALM    29.92F
#WESTON 4E      N/A         74  37  26  N1      29.86S
$$

ORZ505-261810-
JOHN DAY BASIN

CITY            SKY/WX      TMP DP  RH  WIND    PRES   REMARKS
JOHN DAY        SUNNY       69  32  25  CALM    30.07F
#DAYVILLE SCHOOLN/A         67  32  27  CALM    30.01F
#MITCHELL       N/A         75  42  31  CALM    30.20S
#MITCHELL 8NW   N/A         71  32  24  NW1     30.10S
#MONUMENT HS    N/A         63  38  39  VRB1    29.97F
#MT. VERNON 5SE N/A         67  34  29  CALM    30.03F
#SPRAY SCHOOL   N/A         69  N/A N/A CALM    N/A
$$

ORZ506-261810-
OCHOCO AND JOHN DAY HIGHLANDS

CITY            SKY/WX      TMP DP  RH  WIND    PRES   REMARKS
#HORSE RIDGE DO N/A         68  29  23  NW7     N/A
#KEYES SMT DOT  N/A         70  33  25  CALM    N/A
#PAULINA SCHOOL N/A         62  29  28  SE1     N/A
#PINE MTN OBS   N/A         59  31  34  NW1     N/A
#PRAIRIE CITY   N/A         67  38  34  CALM    30.23F
#SENECA         N/A         62  N/A N/A CALM    N/A
#SENECA 9NW     N/A         61  35  38  CALM    29.92F
$$

ORZ049-261810-
GRANDE RONDE VALLEY

CITY            SKY/WX      TMP DP  RH  WIND    PRES   REMARKS
LA GRANDE       SUNNY       70  34  26  CALM    30.04F
#COVE           N/A         67  41  39  N2      30.06F
#COVE SCHOOL    N/A         67  39  36  CALM    30.06S
#COVE 6NW       N/A         64  38  38  CALM    29.93S
#ELGIN 3N       N/A         73  37  27  CALM    30.00S
#IMBLER SCHOOL  N/A         65  39  38  CALM    30.00F
#ISLAND CITY 4N N/A         79  56  45  CALM    29.90F
#LADD CYN DOT   N/A         66  43  43  N3      N/A
#LA GRANDE ELEM N/A         70  39  32  CALM    30.05F
#UNION 1S       N/A         66  40  38  N1      29.85F
$$

ORZ050-261810-
WALLOWA COUNTY

CITY            SKY/WX      TMP DP  RH  WIND    PRES   REMARKS
JOSEPH AIRPORT  SUNNY       70  30  22  N3      30.08S
#IMNAHA SCHOOL  N/A         57  41  55  N3      30.20S
#IMNAHA 10S     N/A         74  34  23  NE2     30.02F
#JOSEPH 3N      N/A         66  32  28  CALM    30.10S
#JOSEPH 3W      N/A         68  36  31  E1      29.94R
#LOSTINE        N/A         68  42  39  CALM    29.75F
#LOSTINE 3SE    N/A         70  34  26  CALM    30.04F
#MT HOWARD 8000 N/A         51  30  44  N2      30.27R
#PROMISE 1S     N/A         70  37  30  CALM    30.00F
#WALLOWA SCHOOL N/A         65  37  35  CALM    30.01F



$$



USA.gov is the U.S. government's official web portal to all federal, state and local government web resources and services.